Location: Canazei
(46.4667°N, 11.7667°E)
Time: 16:38:25
(UTC+00:00)

Cosmos 1833 Rocket - Pass Details

Date: 21 April 2021
Orbit: 831 x 841 km, 71.0° (Epoch: 11 May)

Event Time Altitude Azimuth Distance (km) Brightness Sun altitude
Rises 01:04:06 0° 330° (NNW) 3,405 6.2 -26.4°
Reaches altitude 10° 01:06:35 10° 326° (NNW) 2,467 5.4 -26.2°
Enters shadow 01:11:29 54° 277° (W) 1,014 2.9 -25.8°
